Temp
-6 -6 -6 -6 -6 -5 -5 -5 -5 -5 -5 -5 -5 -5 -5 -5 -5 -4 -4 -4 -4 -4 -4 -4 -4 -4 -4 -5 -4 -4 -4 -4 -4 -4 -3 -4 -4 -4 -4 -4 -4 -5 -5 -5 -3 -3 -4
-6 -6 -6 -6 -6 -6 -6 -6 -6 -6 -6 -6 -5 -5 -5 -5 -5 -5 -5 -4 -4 -4 -4 -4 -4 -4 -4 -5 -4 -4 -4 -4 -4 -4 -4 -3 -4 -5 -5 -5 -3 -6 -6 -5 -4 -4 -6
-6 -6 -6 -6 -6 -6 -6 -6 -6 -6 -6 -6 -6 -6 -6 -6 -6 -5 -5 -5 -5 -5 -4 -4 -4 -4 -4 -5 -4 -4 -5 -4 -4 -4 -4 -4 -4 -4 -5 -5 -5 -6 -6 -5 -4 -5 -6
-7 -7 -7 -7 -7 -7 -7 -7 -7 -7 -7 -7 -6 -6 -6 -6 -6 -6 -6 -6 -5 -5 -5 -4 -4 -4 -4 -5 -5 -5 -5 -5 -4 -5 -5 -4 -4 -4 -5 -5 -5 -4 -4 -4 -4 -6 -7
-7 -8 -8 -8 -8 -8 -7 -7 -7 -7 -7 -7 -7 -6 -6 -6 -6 -6 -6 -6 -5 -5 -5 -5 -5 -4 -5 -5 -5 -4 -4 -5 -5 -5 -5 -5 -4 -4 -5 -4 -6 -4 -3 -3 -4 -6 -7
-8 -8 -8 -7 -7 -7 -7 -7 -7 -7 -7 -6 -6 -6 -6 -6 -6 -6 -6 -6 -6 -5 -6 -5 -5 -5 -5 -5 -5 -5 -5 -5 -5 -5 -5 -5 -4 -4 -4 -4 -2 -3 -3 -3 -4 -5 -6
-8 -7 -7 -7 -7 -7 -7 -7 -7 -7 -7 -6 -6 -6 -6 -6 -6 -6 -6 -6 -5 -5 -6 -5 -5 -5 -6 -6 -5 -5 -5 -6 -5 -5 -4 -5 -4 -3 -4 -4 -4 -5 -5 -4 -5 -6 -6
-7 -8 -8 -8 -8 -7 -7 -7 -7 -7 -7 -7 -6 -6 -6 -6 -6 -6 -6 -6 -5 -5 -5 -7 -6 -5 -5 -5 -5 -6 -5 -5 -5 -5 -5 -5 -3 -5 -5 -5 -5 -5 -5 -4 -7 -6 -6
-8 -8 -8 -8 -8 -8 -8 -7 -7 -7 -7 -7 -8 -7 -7 -8 -9 -8 -8 -9 -8 -7 -6 -6 -6 -6 -6 -5 -5 -6 -7 -6 -6 -6 -5 -5 -4 -5 -5 -5 -5 -5 -5 -5 -5 -7 -7
-8 -8 -8 -8 -8 -8 -8 -8 -8 -7 -8 -8 -8 -10 -10 -13 -12 -13 -14 -14 -14 -14 -10 -9 -9 -8 -7 -6 -5 -7 -7 -8 -7 -6 -7 -6 -6 -6 -6 -6 -6 -5 -5 -6 -6 -7 -7
-9 -8 -8 -8 -8 -8 -8 -8 -8 -8 -9 -9 -11 -12 -14 -14 -15 -15 -15 -15 -15 -15 -15 -14 -13 -12 -10 -8 -6 -7 -7 -7 -8 -7 -7 -5 -6 -5 -5 -5 -6 -5 -6 -6 -6 -8 -7
-9 -9 -9 -9 -8 -8 -8 -8 -9 -10 -12 -12 -13 -14 -15 -15 -15 -15 -15 -14 -14 -14 -14 -14 -15 -15 -15 -12 -10 -8 -8 -6 -7 -8 -7 -6 -7 -7 -6 -6 -6 -6 -6 -7 -7 -8 -8
-10 -9 -9 -9 -9 -9 -9 -9 -11 -12 -13 -14 -14 -15 -15 -16 -15 -15 -15 -15 -15 -15 -15 -15 -15 -15 -15 -15 -14 -13 -9 -7 -8 -8 -7 -8 -7 -6 -7 -7 -7 -6 -7 -7 -8 -9 -8
-10 -10 -10 -10 -10 -10 -10 -11 -12 -13 -14 -15 -15 -15 -16 -16 -15 -15 -15 -15 -15 -15 -15 -16 -16 -17 -17 -16 -16 -15 -11 -11 -8 -8 -9 -9 -9 -7 -8 -7 -7 -6 -6 -6 -5 -6 -5
-10 -10 -10 -10 -11 -11 -11 -12 -13 -14 -15 -15 -15 -16 -16 -16 -15 -15 -16 -16 -16 -16 -17 -18 -19 -19 -19 -19 -17 -16 -15 -14 -12 -10 -9 -10 -8 -8 -8 -8 -8 -8 -6 -6 -6 -6 -6
-10 -10 -11 -11 -11 -11 -13 -13 -14 -15 -15 -15 -16 -16 -16 -16 -16 -16 -16 -17 -17 -17 -19 -20 -21 -22 -22 -21 -19 -16 -17 -16 -16 -13 -9 -10 -8 -9 -8 -10 -8 -6 -7 -6 -6 -6 -6
-11 -11 -11 -12 -12 -13 -14 -14 -14 -15 -16 -16 -16 -16 -16 -16 -16 -16 -17 -17 -18 -19 -20 -21 -22 -23 -23 -23 -21 -17 -16 -16 -16 -15 -11 -10 -8 -8 -11 -10 -7 -7 -8 -8 -9 -7 -6
-11 -12 -12 -12 -12 -14 -14 -15 -15 -15 -16 -16 -16 -16 -16 -16 -17 -18 -18 -19 -19 -20 -21 -22 -23 -24 -24 -24 -24 -20 -16 -16 -16 -15 -15 -11 -8 -9 -10 -7 -9 -9 -8 -9 -8 -6 -6
-12 -12 -13 -13 -14 -14 -15 -15 -15 -16 -16 -16 -16 -16 -17 -17 -17 -18 -18 -19 -20 -20 -21 -22 -23 -24 -24 -24 -24 -23 -18 -16 -15 -16 -15 -14 -10 -9 -9 -10 -11 -10 -9 -7 -7 -8 -6
-12 -13 -13 -14 -15 -15 -15 -15 -16 -16 -16 -16 -16 -16 -17 -17 -17 -17 -18 -19 -20 -22 -22 -23 -23 -24 -24 -24 -24 -24 -19 -16 -16 -15 -15 -14 -10 -9 -9 -10 -10 -9 -9 -9 -8 -7 -6
-13 -13 -14 -15 -15 -15 -15 -16 -16 -17 -16 -16 -16 -17 -17 -17 -18 -18 -18 -19 -20 -21 -23 -23 -23 -24 -24 -24 -24 -24 -20 -17 -16 -15 -14 -13 -11 -10 -9 -9 -10 -9 -10 -10 -9 -7 -6
-13 -15 -16 -16 -16 -16 -16 -16 -16 -16 -16 -16 -16 -17 -17 -18 -18 -18 -19 -20 -20 -21 -23 -23 -24 -24 -25 -25 -24 -24 -20 -17 -17 -17 -14 -14 -13 -10 -9 -10 -10 -10 -9 -10 -10 -8 -7
-15 -16 -16 -16 -16 -17 -17 -17 -16 -16 -16 -16 -17 -17 -18 -18 -18 -18 -19 -20 -21 -21 -23 -23 -24 -24 -25 -24 -24 -23 -21 -18 -17 -17 -14 -14 -13 -11 -11 -11 -11 -11 -11 -11 -10 -9 -8
-15 -16 -16 -16 -17 -17 -17 -17 -16 -16 -16 -16 -17 -17 -17 -18 -18 -18 -19 -20 -21 -21 -22 -23 -24 -24 -24 -24 -24 -24 -19 -17 -17 -17 -14 -14 -13 -12 -12 -12 -11 -11 -11 -11 -10 -10 -10
-17 -16 -16 -17 -17 -17 -17 -16 -16 -16 -16 -16 -17 -17 -17 -17 -18 -18 -19 -20 -21 -21 -22 -24 -24 -24 -24 -24 -23 -22 -19 -17 -17 -18 -15 -14 -13 -13 -13 -12 -11 -11 -11 -10 -10 -10 -9
-16 -16 -16 -16 -16 -16 -16 -16 -16 -16 -16 -16 -17 -17 -17 -18 -18 -19 -19 -20 -20 -21 -22 -22 -23 -24 -23 -24 -24 -22 -19 -18 -17 -17 -15 -14 -13 -13 -13 -12 -12 -11 -11 -11 -10 -10 -10
-16 -16 -16 -16 -16 -16 -16 -16 -16 -16 -16 -16 -16 -17 -17 -18 -18 -18 -19 -19 -20 -21 -22 -22 -23 -23 -23 -23 -22 -21 -21 -19 -18 -18 -15 -13 -13 -13 -12 -12 -12 -10 -10 -10 -11 -10 -10
-16 -16 -16 -16 -16 -16 -16 -16 -15 -16 -16 -16 -16 -16 -16 -17 -18 -18 -19 -19 -20 -21 -21 -22 -23 -23 -23 -23 -21 -20 -20 -19 -19 -17 -15 -13 -13 -13 -12 -12 -11 -10 -10 -10 -10 -10 -10
-16 -16 -16 -16 -16 -16 -16 -16 -15 -15 -16 -15 -15 -15 -15 -16 -17 -18 -18 -19 -20 -20 -21 -22 -23 -23 -22 -22 -21 -20 -20 -18 -19 -18 -17 -15 -13 -13 -12 -12 -11 -10 -10 -10 -10 -9 -10
Height
5884 5883 5881 5880 5878 5877 5875 5873 5871 5869 5867 5865 5864 5862 5860 5858 5857 5856 5856 5855 5855 5855 5855 5856 5857 5859 5861 5860 5854 5859 5859 5860 5862 5863 5865 5867 5869 5871 5875 5875 5879 5880 5883 5885 5883 5883 5886
5880 5878 5877 5875 5874 5872 5870 5868 5865 5863 5861 5859 5857 5855 5853 5851 5850 5849 5848 5848 5848 5849 5849 5848 5850 5853 5857 5854 5851 5855 5854 5856 5858 5859 5861 5864 5866 5868 5868 5871 5877 5879 5881 5881 5879 5882 5883
5877 5875 5873 5871 5869 5867 5865 5863 5861 5859 5857 5854 5852 5849 5847 5844 5843 5842 5840 5840 5839 5839 5840 5841 5842 5845 5851 5843 5846 5851 5849 5850 5853 5854 5856 5858 5857 5860 5864 5865 5871 5873 5874 5877 5877 5877 5882
5874 5872 5870 5868 5867 5864 5862 5860 5857 5854 5851 5848 5845 5843 5840 5838 5835 5834 5832 5831 5830 5831 5830 5831 5833 5836 5843 5837 5841 5843 5842 5843 5845 5848 5849 5850 5851 5854 5856 5862 5863 5865 5869 5872 5876 5876 5879
5872 5870 5868 5866 5864 5861 5858 5855 5852 5848 5845 5842 5838 5835 5832 5829 5827 5824 5823 5821 5822 5822 5821 5820 5822 5824 5831 5830 5828 5834 5839 5836 5838 5840 5841 5842 5843 5849 5849 5853 5856 5859 5864 5870 5872 5875 5876
5871 5869 5866 5863 5859 5856 5852 5849 5845 5841 5837 5833 5829 5825 5822 5819 5816 5814 5812 5810 5810 5813 5807 5808 5811 5815 5817 5818 5820 5822 5830 5829 5831 5830 5830 5834 5836 5841 5841 5844 5850 5854 5861 5865 5869 5871 5870
5868 5865 5862 5858 5854 5850 5846 5842 5837 5832 5828 5823 5818 5813 5808 5805 5802 5801 5798 5797 5799 5803 5792 5795 5797 5802 5803 5802 5809 5809 5813 5817 5819 5821 5826 5827 5827 5833 5844 5845 5849 5851 5854 5860 5868 5870 5870
5865 5861 5857 5854 5849 5845 5840 5834 5829 5823 5817 5811 5806 5800 5793 5789 5785 5782 5778 5776 5778 5783 5787 5776 5780 5787 5788 5790 5799 5797 5800 5805 5809 5814 5817 5814 5821 5835 5834 5836 5840 5844 5847 5855 5862 5864 5868
5861 5857 5853 5847 5842 5838 5832 5826 5819 5812 5806 5800 5792 5785 5779 5771 5768 5764 5759 5756 5756 5756 5765 5757 5762 5766 5771 5776 5784 5786 5785 5789 5793 5802 5805 5809 5823 5821 5824 5828 5831 5836 5840 5851 5858 5861 5863
5856 5851 5845 5840 5833 5827 5820 5813 5807 5799 5791 5786 5778 5771 5766 5761 5757 5751 5746 5743 5740 5737 5741 5740 5742 5745 5747 5756 5762 5763 5765 5769 5776 5786 5791 5797 5808 5808 5812 5817 5824 5828 5840 5845 5849 5851 5855
5850 5844 5837 5831 5823 5817 5811 5803 5796 5789 5781 5774 5768 5761 5753 5748 5745 5742 5739 5736 5732 5731 5728 5727 5724 5723 5727 5734 5739 5744 5748 5747 5757 5767 5774 5788 5796 5799 5802 5813 5818 5829 5830 5835 5842 5843 5848
5843 5837 5830 5823 5817 5809 5801 5795 5787 5779 5772 5764 5757 5751 5744 5739 5734 5732 5729 5726 5722 5720 5718 5714 5713 5710 5712 5711 5715 5719 5726 5738 5744 5749 5760 5772 5783 5785 5798 5805 5806 5818 5819 5825 5831 5836 5830
5836 5829 5823 5816 5809 5801 5793 5785 5777 5769 5762 5754 5747 5742 5734 5729 5725 5721 5716 5713 5710 5707 5705 5702 5702 5697 5694 5697 5701 5706 5709 5719 5729 5733 5737 5747 5759 5772 5779 5787 5793 5801 5805 5810 5815 5816 5817
5829 5822 5815 5808 5800 5792 5783 5774 5766 5760 5751 5744 5737 5733 5725 5720 5715 5709 5704 5701 5697 5692 5690 5687 5682 5676 5672 5673 5681 5693 5693 5695 5705 5712 5722 5731 5745 5756 5766 5773 5784 5791 5795 5800 5804 5810 5821
5822 5814 5807 5799 5791 5782 5773 5765 5758 5750 5741 5735 5727 5723 5718 5710 5704 5699 5694 5687 5683 5679 5673 5667 5663 5653 5651 5648 5660 5672 5678 5678 5682 5691 5699 5713 5728 5746 5756 5765 5774 5783 5786 5800 5804 5810 5817
5814 5806 5798 5789 5781 5772 5763 5756 5750 5741 5732 5724 5719 5715 5709 5701 5694 5689 5682 5675 5668 5663 5658 5649 5637 5633 5630 5628 5638 5650 5659 5661 5667 5670 5680 5697 5709 5728 5747 5755 5763 5774 5783 5788 5792 5797 5802
5805 5797 5789 5780 5771 5762 5754 5746 5740 5734 5722 5716 5711 5706 5700 5692 5683 5677 5671 5665 5658 5650 5644 5635 5626 5620 5618 5615 5618 5627 5642 5650 5655 5660 5669 5682 5698 5721 5727 5736 5753 5761 5767 5775 5788 5792 5796
5796 5787 5779 5771 5762 5752 5746 5738 5731 5723 5717 5708 5703 5698 5691 5683 5675 5666 5659 5654 5647 5641 5633 5624 5618 5613 5610 5610 5609 5610 5624 5633 5642 5651 5659 5667 5684 5700 5719 5741 5745 5755 5762 5770 5775 5784 5793
5786 5777 5769 5761 5753 5745 5738 5730 5722 5714 5708 5703 5697 5690 5681 5674 5666 5658 5649 5643 5636 5630 5624 5617 5611 5606 5604 5602 5601 5599 5604 5622 5632 5642 5649 5659 5669 5696 5714 5721 5729 5740 5753 5766 5775 5782 5788
5776 5767 5759 5752 5745 5737 5731 5722 5714 5706 5700 5694 5689 5682 5673 5663 5656 5650 5643 5637 5629 5620 5616 5608 5604 5600 5597 5594 5591 5590 5597 5607 5618 5633 5638 5646 5662 5683 5696 5716 5728 5734 5742 5755 5765 5772 5783
5768 5759 5752 5744 5736 5730 5723 5715 5707 5699 5693 5688 5682 5673 5663 5657 5650 5641 5634 5628 5622 5615 5607 5600 5597 5591 5587 5584 5585 5587 5588 5599 5610 5621 5632 5645 5660 5672 5685 5702 5714 5726 5737 5746 5754 5767 5774
5759 5751 5744 5737 5729 5723 5715 5707 5701 5695 5688 5681 5675 5665 5659 5649 5642 5635 5626 5619 5614 5607 5600 5595 5589 5585 5581 5577 5577 5579 5579 5591 5600 5614 5627 5640 5651 5670 5689 5702 5713 5723 5733 5741 5750 5763 5774
5750 5743 5738 5730 5722 5714 5707 5700 5695 5690 5684 5677 5669 5663 5654 5645 5635 5628 5620 5613 5608 5600 5596 5589 5584 5579 5576 5574 5572 5573 5574 5590 5598 5603 5619 5638 5653 5670 5683 5696 5708 5721 5729 5734 5748 5762 5772
5744 5739 5732 5724 5714 5706 5700 5695 5691 5685 5679 5671 5663 5657 5650 5641 5631 5623 5616 5608 5602 5595 5590 5585 5579 5574 5571 5569 5568 5567 5571 5587 5595 5601 5615 5631 5646 5665 5677 5688 5699 5712 5717 5728 5740 5748 5758
5739 5734 5726 5717 5709 5703 5698 5693 5687 5681 5674 5666 5658 5652 5644 5637 5628 5621 5612 5605 5598 5592 5586 5580 5576 5570 5566 5564 5564 5567 5574 5587 5596 5601 5613 5626 5639 5656 5670 5681 5695 5705 5713 5721 5726 5737 5745
5736 5729 5723 5717 5710 5704 5698 5691 5685 5678 5671 5664 5657 5649 5642 5633 5626 5617 5610 5602 5596 5589 5583 5577 5575 5571 5566 5561 5561 5569 5578 5588 5599 5602 5608 5620 5633 5652 5664 5671 5682 5691 5705 5713 5722 5731 5739
5734 5728 5722 5716 5710 5704 5696 5690 5684 5677 5670 5663 5656 5648 5641 5631 5622 5614 5607 5601 5595 5588 5583 5577 5575 5573 5566 5565 5567 5573 5580 5591 5598 5600 5609 5619 5628 5643 5656 5665 5672 5681 5690 5699 5713 5722 5728
5733 5728 5722 5716 5709 5702 5696 5691 5685 5678 5670 5663 5657 5649 5639 5630 5622 5614 5608 5601 5595 5589 5584 5579 5577 5574 5572 5569 5572 5577 5580 5588 5595 5599 5607 5617 5629 5639 5654 5662 5670 5678 5683 5692 5695 5706 5718
5733 5728 5722 5715 5708 5703 5697 5692 5687 5680 5672 5666 5661 5651 5641 5634 5626 5617 5610 5603 5597 5593 5587 5582 5579 5577 5577 5573 5574 5576 5579 5591 5598 5599 5604 5612 5623 5633 5647 5655 5665 5673 5677 5682 5691 5699 5713
Wind_Speed
13 14 15 17 18 20 21 22 23 24 25 25 26 27 28 29 29 30 31 30 28 26 26 25 22 17 13 12 24 17 19 18 15 17 22 21 21 21 15 17 14 16 17 14 18 11 7
14 14 15 16 17 18 19 21 22 23 23 24 25 26 27 27 28 30 31 32 33 33 31 30 27 23 15 19 25 15 22 20 20 18 19 22 22 23 25 22 15 19 20 20 20 17 9
12 13 15 15 16 17 18 19 21 22 23 24 25 25 26 27 27 28 29 30 31 33 33 35 34 29 19 29 26 17 19 24 22 21 19 22 30 30 29 29 25 26 27 28 24 14 13
12 13 13 15 17 19 22 24 25 26 27 28 30 31 32 32 31 30 30 31 31 31 33 34 36 35 25 33 29 22 25 25 25 25 25 25 29 32 35 30 32 32 32 26 21 16 17
11 13 16 17 21 25 27 29 30 31 33 33 35 35 36 38 38 37 36 36 33 33 35 35 35 35 31 35 37 32 26 29 29 29 31 31 33 30 37 36 38 36 29 27 28 25 18
16 18 21 24 27 29 31 32 34 35 36 38 41 43 43 41 41 42 41 40 40 39 42 39 37 37 36 36 38 36 31 35 31 33 36 36 36 34 37 39 34 34 28 27 26 25 21
20 23 25 25 27 30 31 33 35 38 41 43 44 46 47 49 48 46 46 47 48 43 46 49 47 41 39 41 39 43 40 40 40 39 32 35 40 37 27 30 31 35 34 28 22 26 27
22 23 25 28 31 34 37 40 41 44 47 51 53 50 52 54 56 56 56 57 55 51 45 46 52 51 48 47 41 41 46 45 44 40 37 42 37 26 31 33 33 38 38 30 27 28 24
27 29 32 35 38 39 41 42 45 49 51 52 52 55 57 58 57 59 59 57 59 59 55 58 55 51 56 53 48 44 44 46 48 45 45 42 26 33 35 35 35 36 38 32 29 30 28
30 33 35 36 38 40 45 49 52 56 55 58 57 56 57 47 50 38 32 32 37 37 45 52 51 49 51 60 59 55 54 49 51 49 49 46 36 39 39 38 35 36 29 35 34 36 40
35 38 38 40 41 45 48 51 56 58 56 57 55 49 44 45 31 24 29 35 36 33 39 37 39 43 46 52 64 63 61 59 51 53 54 47 43 42 44 37 35 26 33 39 37 38 42
37 39 41 41 45 47 50 54 54 54 50 50 48 43 42 38 31 31 35 37 39 38 40 39 36 37 36 45 56 65 68 66 59 54 55 51 47 48 40 36 39 34 37 41 44 45 52
39 40 42 46 49 51 52 53 54 51 48 44 43 41 40 37 35 38 41 40 38 37 36 38 40 47 44 42 49 51 68 71 65 62 63 59 58 54 48 45 46 42 44 46 52 58 58
42 43 46 50 53 53 53 53 52 48 47 41 43 40 33 35 38 40 41 37 33 34 37 42 49 47 49 52 52 46 66 70 73 69 63 58 59 58 52 50 45 45 48 49 51 54 47
46 49 49 52 55 53 51 52 50 48 46 41 43 35 30 37 40 37 38 35 35 37 39 39 41 49 51 52 50 53 62 60 70 74 73 63 62 57 53 49 47 42 49 41 43 47 46
49 51 55 53 55 51 49 50 48 45 43 42 34 27 34 40 39 39 39 35 40 40 41 43 44 38 35 40 45 61 61 56 62 73 78 70 68 62 56 46 48 46 40 44 46 44 46
49 53 53 54 50 48 47 48 48 43 39 38 31 34 38 41 38 38 35 34 38 37 40 42 39 33 31 34 29 67 65 56 64 69 77 75 73 65 49 60 52 52 50 45 42 44 41
52 55 53 55 47 45 44 47 46 44 34 35 34 36 39 41 36 36 33 31 35 34 38 36 29 24 28 25 27 57 67 55 58 67 70 74 77 69 63 53 53 48 51 46 45 45 37
54 57 57 47 44 43 43 46 45 41 35 28 34 37 42 38 34 35 32 30 33 32 34 26 26 27 27 29 31 30 62 56 47 56 66 69 78 67 66 56 57 51 49 48 46 38 39
56 56 45 42 41 41 43 44 43 39 35 31 35 41 39 37 35 33 32 30 30 31 30 23 25 30 31 28 32 24 58 56 40 60 64 70 78 73 71 64 54 58 54 51 49 45 39
58 47 41 38 39 42 42 44 40 38 33 31 38 41 38 35 35 33 33 31 31 28 26 23 22 25 26 27 27 28 57 49 42 64 61 71 73 74 73 68 63 59 54 50 53 48 41
53 37 37 38 41 42 42 41 36 32 32 35 40 38 33 36 34 32 32 32 31 29 21 21 23 22 20 16 19 19 54 50 34 33 59 64 68 73 70 66 60 56 55 50 41 44 41
35 34 37 41 45 43 39 36 31 28 32 38 36 30 31 32 36 33 32 30 30 30 19 25 22 20 16 19 15 14 41 48 32 36 59 67 64 68 69 65 60 55 50 48 35 31 36
30 36 41 45 44 37 31 28 26 31 36 37 34 27 31 32 35 34 30 28 29 28 25 18 20 20 15 17 16 21 51 52 28 31 53 62 67 69 57 67 63 56 47 48 41 34 32
31 37 42 36 30 27 25 26 30 34 33 34 31 30 33 33 34 31 28 27 27 28 24 11 11 13 11 12 9 9 40 55 34 20 53 61 66 66 55 69 64 59 49 52 53 46 40
35 35 25 26 26 27 29 31 32 30 30 31 32 32 32 34 32 32 27 27 24 26 26 19 10 18 15 6 17 16 28 30 26 29 47 59 66 65 65 64 69 64 53 55 54 50 43
30 20 25 28 29 28 28 29 31 33 31 29 30 30 28 31 30 29 29 26 20 21 25 21 9 12 8 17 23 21 13 22 16 27 45 62 70 66 72 66 67 67 66 61 49 57 52
16 22 27 28 27 25 24 28 34 33 28 27 27 28 34 35 32 30 30 27 20 20 21 18 10 12 12 13 19 24 25 32 7 26 45 62 65 69 71 70 66 65 55 56 60 64 57
19 27 29 28 26 25 25 29 30 28 28 29 31 38 43 41 39 34 35 32 25 19 19 22 10 14 7 8 26 24 28 30 11 16 30 45 61 71 69 81 66 69 63 52 64 67 58
Wind_Direction
302 302 302 302 303 303 303 302 300 299 298 296 293 291 289 285 282 279 277 277 277 276 276 277 277 272 267 272 254 251 238 237 229 226 220 217 220 231 229 227 221 199 210 211 200 186 159
319 318 315 314 313 312 310 309 307 305 304 302 300 298 294 291 287 283 280 278 274 271 270 272 272 268 262 258 259 239 249 239 238 234 232 225 221 222 219 223 211 197 211 210 185 178 173
329 328 326 321 319 317 315 314 313 311 308 306 303 301 297 294 290 288 285 280 276 273 269 264 263 264 258 254 255 251 248 243 236 234 232 222 222 218 219 220 210 211 213 217 231 204 196
327 330 333 335 336 332 328 324 320 316 314 312 310 308 305 301 296 292 288 282 278 274 271 267 263 258 251 251 253 241 238 242 238 234 229 230 226 219 215 217 221 218 214 221 217 202 193
356 350 344 338 331 328 326 323 320 315 309 306 307 305 300 296 293 291 288 284 280 277 274 268 263 260 250 246 249 246 241 243 236 232 232 230 231 226 223 218 219 225 227 217 214 180 198
350 342 335 330 326 324 322 319 315 312 312 309 305 300 296 297 288 280 279 278 279 280 276 269 265 260 255 246 244 246 238 243 241 236 231 232 233 232 229 228 234 234 233 230 224 213 220
332 330 332 333 331 328 324 319 315 315 313 312 309 305 302 298 296 288 280 276 274 269 268 267 264 259 255 249 242 242 234 232 236 237 235 236 235 235 247 246 239 231 235 233 222 222 219
331 331 329 328 325 321 321 323 323 322 319 316 313 309 305 302 299 295 289 285 280 274 257 264 262 260 252 251 239 239 241 233 231 235 235 235 234 235 231 233 232 233 233 230 218 222 215
330 327 326 328 328 326 326 327 329 327 322 319 316 314 310 308 304 300 297 294 288 281 271 268 263 252 247 245 242 237 238 236 231 226 233 238 232 234 231 229 226 226 230 225 220 215 211
331 329 327 326 330 331 333 331 329 327 325 321 316 315 309 317 308 304 300 300 303 295 283 273 269 259 248 239 237 232 228 228 229 225 227 229 227 227 227 228 227 227 224 222 219 213 207
330 329 330 331 332 332 331 328 326 322 317 314 314 316 320 317 301 287 298 306 308 298 302 291 290 270 251 240 233 228 229 221 219 225 224 223 221 225 226 224 229 221 224 218 216 217 198
331 331 332 330 329 329 326 325 321 319 318 316 314 319 320 311 293 296 308 305 300 297 300 297 293 284 274 241 234 222 220 226 217 216 223 221 220 225 224 222 225 215 220 215 213 209 204
331 330 329 328 328 328 326 323 319 318 320 316 314 317 314 312 311 312 313 312 309 300 296 294 293 279 273 255 237 216 211 217 218 214 213 215 212 213 217 213 215 212 214 210 208 206 214
328 325 324 326 327 328 324 320 319 323 322 315 314 317 310 311 315 317 315 313 300 298 294 293 286 276 270 253 238 217 210 207 213 214 212 218 213 209 209 210 216 212 215 214 212 213 220
326 325 324 325 327 326 321 318 321 324 322 317 318 317 310 314 320 317 318 308 307 305 304 289 296 276 269 250 234 215 204 200 208 208 210 212 209 212 211 211 207 210 216 215 215 219 220
325 324 322 322 325 322 319 317 323 325 321 318 317 317 319 322 320 319 324 312 315 312 312 306 298 289 272 256 237 210 201 204 202 205 207 206 207 206 210 208 210 208 211 208 215 216 218
325 326 325 323 322 319 318 320 324 326 320 318 311 317 324 326 324 323 319 308 318 316 315 306 295 291 284 276 250 207 200 201 198 204 205 202 207 199 202 203 204 203 203 207 216 218 220
328 326 323 322 317 317 320 322 324 324 321 318 313 314 323 327 323 322 316 317 318 319 318 309 291 286 281 280 269 226 196 200 202 203 205 201 205 198 200 199 199 215 207 205 206 212 219
322 322 321 318 316 317 323 322 325 325 323 313 312 322 323 323 320 325 319 318 319 320 316 305 284 281 276 282 291 263 209 190 199 201 204 205 202 195 196 197 199 199 207 213 213 212 213
322 322 320 320 316 319 325 323 327 325 323 322 321 325 327 327 325 329 324 320 324 316 312 318 300 287 281 274 261 274 213 182 182 193 202 203 200 194 196 197 197 198 199 208 210 210 204
323 320 321 320 317 322 325 326 328 328 330 329 327 331 332 330 330 330 329 320 324 321 311 315 309 301 292 274 261 269 227 185 167 188 201 204 202 193 194 193 195 198 195 203 211 209 208
322 321 319 320 319 324 327 326 329 333 331 329 333 335 339 332 332 333 333 323 325 329 316 313 315 310 302 278 277 256 230 191 163 169 199 199 202 194 191 190 192 198 196 200 207 208 208
316 322 323 322 323 325 323 326 333 337 333 332 335 337 339 337 334 336 334 329 324 326 322 301 317 312 288 281 292 271 235 196 166 152 193 198 201 193 186 183 187 190 193 198 187 201 208
337 330 326 326 327 331 330 335 343 338 337 337 339 337 339 341 337 336 336 332 325 321 336 313 316 308 285 289 275 282 221 190 189 150 179 193 200 194 190 184 188 184 191 200 190 198 211
337 329 333 338 348 355 359 353 343 344 344 347 346 340 340 339 337 338 337 338 332 325 333 352 336 346 307 296 288 240 225 202 185 155 176 192 197 196 193 187 185 187 187 189 195 194 200
336 343 359 6 3 2 353 349 352 354 351 351 351 346 344 345 346 344 344 345 346 345 328 324 333 357 353 13 113 128 191 192 177 156 160 186 196 194 192 193 187 189 186 191 196 195 192
346 2 2 1 358 356 355 6 5 1 357 353 350 352 4 6 2 358 352 352 358 3 352 345 332 7 96 104 106 104 185 181 183 174 162 182 197 193 195 195 188 187 181 190 194 196 192
359 0 4 3 359 360 11 13 6 6 9 9 12 15 25 21 13 11 9 4 5 7 6 2 20 54 138 40 125 120 141 177 126 172 163 183 190 193 192 199 196 187 181 184 184 197 195
357 359 9 10 8 15 14 10 12 18 28 33 36 40 38 30 23 23 27 24 16 11 19 26 41 64 129 40 120 133 130 178 162 164 156 153 179 192 192 201 202 190 197 183 186 194 194